CZ-4C DEB

Last updated on April 21, 2021, 12:02 a.m. UTC

1 48081U 21026C   21110.52114251  .01775581  00000-0  91193-1 0  9996
2 48081  97.7811 104.1039 0042957 171.7766 188.4187 15.12593106  3065

Satellite is not in orbit.